Location: G�rlitz
(51.1670°N, 15.0000°E)
Time: 10:29:56
(UTC+01:00)

ARIANE 6 FM1 Upper Stage - Pass Details

Date: 18 February 2026
Orbit: 523 x 607 km, 62.0° (Epoch: 7 March)

Event Time Altitude Azimuth Distance (km) Brightness Sun altitude
Rises 18:37:22 0° 310° (NW) 2,662 6.9 -12.6°
Reaches altitude 10° 18:39:35 10° 306° (NW) 1,768 6.0 -12.9°
Maximum altitude 18:43:27 52° 229° (SW) 658 3.3 -13.5°
Drops below altitude 10° 18:47:18 10° 153° (SSE) 1,770 4.9 -14.1°
Enters shadow 18:48:22 - 150° (SSE) 2,196 5.4 -14.3°
